Location: Praha
(50.0830°N, 14.4670°E)
Time: 15:20:48
(UTC+01:00)

ISS - Pass Details

Date: 18 March 2023
Orbit: 414 x 423 km, 51.6° (Epoch: 21 March)

Event Time Altitude Azimuth Distance (km) Brightness Sun altitude
Rises 18:37:29 0° 205° (SSW) 2,346 0.3 -5.0°
Reaches altitude 10° 18:40:01 10° 185° (S) 1,486 -0.9 -5.4°
Maximum altitude 18:42:21 18° 141° (SE) 1,100 -2.0 -5.8°
Drops below altitude 10° 18:44:42 10° 96° (E) 1,490 -1.7 -6.2°
Enters shadow 18:45:10 - 91° (E) 1,633 -1.5 -6.2°
